Location: Bieujac
(44.5398°N, 0.1549°W)
Time: 05:07:17
(UTC+00:00)

Cosmos 1892 - Pass Details

Date: 17 November 2019
Orbit: 504 x 525 km, 82.5° (Epoch: 13 December)

Event Time Altitude Azimuth Distance (km) Brightness Sun altitude
Rises 05:30:48 0° 207° (SSW) 2,609 6.1 -15.7°
Reaches altitude 10° 05:33:03 10° 216° (SW) 1,725 5.1 -15.3°
Maximum altitude 05:36:33 36° 284° (WNW) 826 3.2 -14.7°
Drops below altitude 10° 05:40:04 10° 352° (N) 1,731 5.1 -14.1°
Sets 05:42:20 0° 1° (N) 2,619 6.2 -13.7°
